Location: Gull Harbor
(47.1000°N, 122.9000°W)
Time: 22:06:47
(UTC-07:00)

Tiangong 2 - Visible Passes

Search period start: 19 July 2018 00:00
Search period end: 29 July 2018 00:00
Orbit: 386 x 394 km, 42.8° (Epoch: 19 July)

Date Brightness Start Highest point End Pass type
(mag) Time Alt. Az. Time Alt. Az. Time Alt. Az.
19 Jul 2.5 22:40:37 10° WSW 22:43:10 22° SSW 22:43:38 21° S visible
20 Jul 2.3 21:42:49 10° WSW 21:45:37 28° SSW 21:48:20 10° SE visible
21 Jul 3.2 22:22:24 10° WSW 22:24:23 15° SSW 22:25:22 14° S visible
